Regional Weather Roundup
Issued by NWS

Home | Current Version | Previous Version | Text Only | Print | Product List | Glossary On
Versions: 1 2 3 4 5 6 7 8 9 10 11 12 13 14 15 16 17 18 19 20 21 22 23 24 25 26 27 28 29 30 31 32 33 34 35 36 37 38 39 40 41 42 43 44 45 46 47 48 49 50
000
ASUS44 KFWD 150403
RWRTX
NORTH TEXAS HOURLY WEATHER ROUNDUP
NATIONAL WEATHER SERVICE FORT WORTH TX
1100 PM CDT SUN SEP 14 2014

NOTE: "FAIR" INDICATES FEW OR NO CLOUDS BELOW 12,000 FEET WITH NO
SIGNIFICANT WEATHER AND/OR OBSTRUCTIONS TO VISIBILITY.

TXZ118-119-150500-
DALLAS/FORT WORTH METROPLEX

CITY           SKY/WX    TMP DP  RH WIND       PRES   REMARKS
DFW AIRPORT    MOCLDY    73  63  70 CALM      30.13F
DALLAS LOVE    MOCLDY    72  64  76 E5        30.14S
FTW MEACHAM    PTCLDY    73  63  70 E3        30.13F
DAL-EXECUTIVE  CLEAR     71  64  78 SE3       30.14S
FTW-ALLIANCE   MOCLDY    66  62  87 CALM      30.13F
FTW-NAS-JRB    PTCLDY    78  62  57 CALM      30.18S
FTW-SPINKS     PTCLDY    69  64  82 CALM      30.16S
ARLINGTON      PTCLDY    70  64  81 CALM      30.14S
GRAND PRAIRIE  PTCLDY    73  62  69 CALM      30.15S
ADDISON        PTCLDY    74  63  66 E5        30.15F
MESQUITE       PTCLDY    71  63  76 E3        30.15S
LANCASTER      PTCLDY    68  62  82 CALM      30.15F
$$

TXZ091>094-102>105-117-120-121-131>134-150500-
NORTH CENTRAL TEXAS

CITY           SKY/WX    TMP DP  RH WIND       PRES   REMARKS
SHRMAN/DENISON MOCLDY    71  64  78 SE5       30.16S
GAINESVILLE    CLOUDY    67  65  91 SE3       30.16F
BOWIE          MOCLDY    67  64  90 SE3       30.14F
BRIDGEPORT     MOCLDY    69  62  77 SE3       30.16S
DECATUR        PTCLDY    69  62  78 SE5       30.15F
DENTON         MOCLDY    69  63  81 CALM      30.14F
MCKINNEY       MOCLDY    71  65  81 E3        30.14F
GREENVILLE     MOCLDY    70  63  78 CALM      30.15S
ROCKWALL       MOCLDY    71  64  80 E5        30.14S
TERRELL        PTCLDY    73  67  81 CALM      30.15S
WAXAHACHIE     PTCLDY    70  62  76 CALM      30.16S
GRANBURY       MOCLDY    74  64  71 S3        30.16R
$$

TXZ083>090-098>101-113>116-127>130-139>142-154-155-150500-
WESTERN NORTH TEXAS

CITY           SKY/WX    TMP DP  RH WIND       PRES   REMARKS
WICHITA FALLS  CLOUDY    71  64  78 S9        30.13S
WF-KICKAPOO    CLOUDY    72  63  73 SE7       30.15R
VERNON         CLOUDY    73  64  75 S5        30.13F
ABILENE        CLOUDY    76  62  62 S6        30.16S
ABILENE-DYESS  CLOUDY    74  63  67 W6        30.16R
BRECKENRIDGE   CLOUDY    76  62  61 SE8       30.13F
MINERAL WELLS  CLOUDY    71  62  73 SE8       30.13S
STEPHENVILLE   CLOUDY    72  63  72 SE5       30.19S
COMANCHE         N/A     72  63  73 SE6       30.16S
BROWNWOOD      CLOUDY    75  63  64 E7        30.16R
COLEMAN        CLOUDY    74  61  63 CALM      30.17R
BRADY          CLEAR     72  64  78 CALM      30.18R
$$

TXZ143>147-156>162-174-175-150500-
CENTRAL TEXAS

CITY           SKY/WX    TMP DP  RH WIND       PRES   REMARKS
WACO           MOCLDY    69  65  86 CALM      30.14S
WACO-MCGREGOR  CLOUDY    70  57  64 CALM      30.15F
HILLSBORO      PTCLDY    73  63  71 SE3       30.15S
CORSICANA      PTCLDY    73  66  78 E3        30.15S
MEXIA          CLOUDY    72  65  78 CALM      30.13F
HEARNE           N/A     71  69  90 CALM      30.12F
CAMERON        PTCLDY    73  67  81 CALM      30.13S
TEMPLE         CLOUDY    72  59  64 NE5       30.13F
KILLEEN        CLOUDY    73  64  73 NE5       30.15S
KILLEEN-SKYLRK CLOUDY    73  61  64 CALM      30.15S
FORT HOOD      CLOUDY    75  31  19 E3        30.15S
HAMILTON       CLOUDY    72  63  73 E7        30.17S
LAMPASAS       CLOUDY    76  68  77 E3        30.16R
$$

TXZ095>097-106>112-122>126-135>138-148>153-164>167-150500-
EAST TEXAS

CITY           SKY/WX    TMP DP  RH WIND       PRES   REMARKS
PARIS          MOCLDY    70  61  73 SE6       30.16S
SULPHUR SPRNGS MOCLDY    70  65  83 E6        30.17S
MOUNT PLEASANT PTCLDY    70  64  83 CALM      30.17S
GILMER         CLEAR     72  66  83 CALM      30.17S
MINEOLA        MOCLDY    70  66  88 CALM      30.16S
TYLER          MOCLDY    73  67  81 CALM      30.14F
LONGVIEW       CLEAR     72  64  76 NE5       30.14S
MARSHALL       CLEAR     73  69  85 CALM      30.17S
ATHENS         PTCLDY    68  64  88 CALM      30.13F
PALESTINE      PTCLDY    71  68  91 CALM      30.15S
JACKSONVILLE   PTCLDY    75  66  72 CALM      30.17R
HENDERSON      CLEAR     71  67  89 CALM      30.15S
NACOGDOCHES    PTCLDY    70  66  88 E5        30.15R
LUFKIN         PTCLDY    75  69  81 E5        30.13S
$$

SUPPLEMENTAL OBSERVATIONS (CENTRAL)

CITY           SKY/WX    TMP DP  RH WIND       PRES   REMARKS
$$

SUPPLEMENTAL OBSERVATIONS (WEST)

CITY           SKY/WX    TMP DP  RH WIND       PRES   REMARKS
$$

SUPPLEMENTAL OBSERVATIONS (EAST)

CITY           SKY/WX    TMP DP  RH WIND       PRES   REMARKS
$$

SUPPLEMENTAL OBSERVATIONS ARE A COLLECTION OF AUTOMATED INSTRUMENTS
THAT ARE MAINTAINED BY A VARIETY OF FEDERAL AND STATE AGENCIES.
CERTAIN ELEMENTS...SUCH AS HUMIDITY VALUES AND SUSTAINED WIND
SPEEDS...MAY BE APPROXIMATED.



USA.gov is the U.S. government's official web portal to all federal, state and local government web resources and services.